Multibeam Report for NBP0505


Ship Name: Nathaniel B. Palmer
Chief Scientist: Anderson, John
Rice University
Source Organization: Marine Geoscience Data System (MGDS)
Start Date: 2005-06-26
End Date: 2005-07-14


View ISO Metadata

Visit the full NCEI Bathymetry Viewer


Multibeam Bathymetry

Cruise Details

Project: Controls on Sediment Yields from Tidewater Glacier
Instrument: Simrad EM120

Data Quality

Number of Files: 326
Number of Records: 1109942
BATHYMETRY DATA Quantity Percentage
Number of Beams 211998540 100%
Number of Good Beams 182914251 86.28%
Number of Zero Beams 29084289 13.72%
Number of Flagged Beams 0 0%
AMPLITUDE DATA Quantity Percentage
Number of Beams 211998540 100%
Number of Good Beams 182914251 86.28%
Number of Zero Beams 29084289 13.72%
Number of Flagged Beams 0 0%
SIDESCAN DATA Quantity Percentage
Number of Pixels 1136578560 100%
Number of Good Pixels 999290112 87.92%
Number of Zero Pixels 0 0%
Number of Flagged Pixels 137288448 12.08%

Navigation Totals

Total Time: 253.4507 hours
Total Track Length: 2830.1678 km
Average Speed: 11.167 km/hr (6.0297 knots)

Cruise Bounds

Northern Extent: -45.990063
Southern Extent: -54.44142
Western Extent: -74.593605
Eastern Extent: -69.36978

Limits

Minimum Sonar Depth 0 Maximum Sonar Depth 17.2
Minimum Altitude 0 Maximum Altitude 1112.62
Minimum Depth 7.49 Maximum Depth 1225.52
Minimum Amplitude 0 Maximum Amplitude 18
Minimum Sidescan 0 Maximum Sidescan 127

File Information

Full Resolution Bathymetry as collected (raw): 324

Files File Size Description
0001_20050626_022311_raw.mb56.gz 28.68MB Simrad multibeam vendor format
0002_20050626_024541_raw.mb56.gz 70.33MB Simrad multibeam vendor format
0003_20050626_034541_raw.mb56.gz 97.87MB Simrad multibeam vendor format
0004_20050626_044542_raw.mb56.gz 71.73MB Simrad multibeam vendor format
0005_20050626_051912_raw.mb56.gz 135.55MB Simrad multibeam vendor format
0006_20050626_061912_raw.mb56.gz 121.05MB Simrad multibeam vendor format
0007_20050626_071752_raw.mb56.gz 116.34MB Simrad multibeam vendor format
0008_20050626_081752_raw.mb56.gz 38.72MB Simrad multibeam vendor format
0009_20050626_092224_raw.mb56.gz 132.55MB Simrad multibeam vendor format
0010_20050626_102224_raw.mb56.gz 48.91MB Simrad multibeam vendor format
0011_20050626_104228_raw.mb56.gz 70.8KB Simrad multibeam vendor format
0012_20050626_104231_raw.mb56.gz 80.08MB Simrad multibeam vendor format
0013_20050626_111525_raw.mb56.gz 67.74MB Simrad multibeam vendor format
0014_20050626_114451_raw.mb56.gz 140.4KB Simrad multibeam vendor format
0015_20050626_114502_raw.mb56.gz 32.02MB Simrad multibeam vendor format
0016_20050626_120103_raw.mb56.gz 90.02MB Simrad multibeam vendor format
0017_20050626_123844_raw.mb56.gz 45.08MB Simrad multibeam vendor format
0018_20050626_131948_raw.mb56.gz 121.10MB Simrad multibeam vendor format
0019_20050626_141948_raw.mb56.gz 31.20MB Simrad multibeam vendor format
0020_20050626_144450_raw.mb56.gz 89.02MB Simrad multibeam vendor format
0021_20050626_160008_raw.mb56.gz 118.44MB Simrad multibeam vendor format
0022_20050626_170009_raw.mb56.gz 41.34MB Simrad multibeam vendor format
0023_20050626_184039_raw.mb56.gz 46.74MB Simrad multibeam vendor format
0024_20050626_194039_raw.mb56.gz 41.00MB Simrad multibeam vendor format
0025_20050626_204039_raw.mb56.gz 56.04MB Simrad multibeam vendor format
0026_20050626_214039_raw.mb56.gz 97.85MB Simrad multibeam vendor format
0027_20050626_224039_raw.mb56.gz 24.52MB Simrad multibeam vendor format
0028_20050627_005735.mb57.gz 40.71MB Simrad multibeam processing format
0029_20050627_015736.mb57.gz 55.25MB Simrad multibeam processing format
0030_20050627_025736.mb57.gz 40.95MB Simrad multibeam processing format
0031_20050627_035736.mb57.gz 49.11MB Simrad multibeam processing format
0032_20050627_045736.mb57.gz 21.19MB Simrad multibeam processing format
0033_20050627_074448.mb57.gz 15.50MB Simrad multibeam processing format
0034_20050627_090404.mb57.gz 42.01MB Simrad multibeam processing format
0035_20050627_100405.mb57.gz 54.29MB Simrad multibeam processing format
0036_20050627_110405.mb57.gz 52.36MB Simrad multibeam processing format
0037_20050627_123950.mb57.gz 32.62MB Simrad multibeam processing format
0038_20050627_133950.mb57.gz 30.18MB Simrad multibeam processing format
0039_20050627_143950.mb57.gz 6.01MB Simrad multibeam processing format
0040_20050627_145203.mb57.gz 4.30MB Simrad multibeam processing format
0041_20050627_145813.mb57.gz 25.4KB Simrad multibeam processing format
0042_20050627_145911.mb57.gz 5.65MB Simrad multibeam processing format
0043_20050627_152731.mb57.gz 34.80MB Simrad multibeam processing format
0044_20050627_164737.mb57.gz 9.11MB Simrad multibeam processing format
0045_20050627_174617.mb57.gz 30.85MB Simrad multibeam processing format
0046_20050627_184617.mb57.gz 34.66MB Simrad multibeam processing format
0047_20050627_194615.mb57.gz 30.40MB Simrad multibeam processing format
0048_20050627_204615.mb57.gz 14.37MB Simrad multibeam processing format
0049_20050627_211042.mb57.gz 52.45MB Simrad multibeam processing format
0050_20050627_221042.mb57.gz 52.59MB Simrad multibeam processing format
0051_20050627_231042.mb57.gz 30.91MB Simrad multibeam processing format
0052_20050628_004639.mb57.gz 5.03MB Simrad multibeam processing format
0053_20050628_005233.mb57.gz 13.30MB Simrad multibeam processing format
0058_20050628_055233.mb57.gz 17.39MB Simrad multibeam processing format
0059_20050628_065233.mb57.gz 40.59MB Simrad multibeam processing format
0060_20050628_075234.mb57.gz 55.06MB Simrad multibeam processing format
0061_20050628_085234.mb57.gz 37.92MB Simrad multibeam processing format
0062_20050628_095234.mb57.gz 30.31MB Simrad multibeam processing format
0063_20050628_103921.mb57.gz 44.26MB Simrad multibeam processing format
0064_20050628_113921.mb57.gz 5.60MB Simrad multibeam processing format
0065_20050628_115837.mb57.gz 25.85MB Simrad multibeam processing format
0066_20050628_123704.mb57.gz 21.25MB Simrad multibeam processing format
0067_20050628_131507.mb57.gz 34.91MB Simrad multibeam processing format
0068_20050628_141508.mb57.gz 41.35MB Simrad multibeam processing format
0069_20050628_151508.mb57.gz 44.27MB Simrad multibeam processing format
0070_20050628_161508.mb57.gz 37.95MB Simrad multibeam processing format
0071_20050628_171508.mb57.gz 41.69MB Simrad multibeam processing format
0072_20050628_181508.mb57.gz 48.62MB Simrad multibeam processing format
0073_20050628_191508.mb57.gz 44.04MB Simrad multibeam processing format
0074_20050628_201017.mb57.gz 26.30MB Simrad multibeam processing format
0075_20050628_211017.mb57.gz 13.11MB Simrad multibeam processing format
0076_20050628_233910.mb57.gz 16.41MB Simrad multibeam processing format
0077_20050629_002537.mb57.gz 29.01MB Simrad multibeam processing format
0078_20050629_012537.mb57.gz 28.19MB Simrad multibeam processing format
0079_20050629_022537.mb57.gz 29.93MB Simrad multibeam processing format
0080_20050629_032538.mb57.gz 29.64MB Simrad multibeam processing format
0081_20050629_042538.mb57.gz 28.39MB Simrad multibeam processing format
0082_20050629_052538.mb57.gz 28.20MB Simrad multibeam processing format
0083_20050629_062538.mb57.gz 28.40MB Simrad multibeam processing format
0084_20050629_072538.mb57.gz 30.86MB Simrad multibeam processing format
0085_20050629_082538.mb57.gz 27.36MB Simrad multibeam processing format
0086_20050629_092538.mb57.gz 29.52MB Simrad multibeam processing format
0087_20050629_102538.mb57.gz 19.35MB Simrad multibeam processing format
0088_20050629_132133.mb57.gz 21.67MB Simrad multibeam processing format
0089_20050629_153129.mb57.gz 16.32MB Simrad multibeam processing format
0090_20050629_183336.mb57.gz 29.64MB Simrad multibeam processing format
0091_20050629_193336.mb57.gz 16.52MB Simrad multibeam processing format
0092_20050629_233417.mb57.gz 16.12MB Simrad multibeam processing format
0093_20050630_020559.mb57.gz 13.92MB Simrad multibeam processing format
0094_20050630_022828.mb57.gz 43.64MB Simrad multibeam processing format
0095_20050630_031442.mb57.gz 33.88MB Simrad multibeam processing format
0096_20050630_034713.mb57.gz 60.45MB Simrad multibeam processing format
0097_20050630_044713.mb57.gz 19.48MB Simrad multibeam processing format
0098_20050630_050614.mb57.gz 56.46MB Simrad multibeam processing format
0099_20050630_060614.mb57.gz 61.83MB Simrad multibeam processing format
0100_20050630_070614.mb57.gz 4.56MB Simrad multibeam processing format
0101_20050630_071046.mb57.gz 60.53MB Simrad multibeam processing format
0102_20050630_081047.mb57.gz 60.81MB Simrad multibeam processing format
0103_20050630_091047.mb57.gz 51.43MB Simrad multibeam processing format
0104_20050630_101047.mb57.gz 22.24MB Simrad multibeam processing format
0105_20050630_103918.mb57.gz 41.74MB Simrad multibeam processing format
0106_20050630_113918.mb57.gz 40.59MB Simrad multibeam processing format
0107_20050630_123918.mb57.gz 43.14MB Simrad multibeam processing format
0108_20050630_133919.mb57.gz 45.22MB Simrad multibeam processing format
0109_20050630_143919.mb57.gz 30.10MB Simrad multibeam processing format
0110_20050630_155253.mb57.gz 37.70MB Simrad multibeam processing format
0111_20050630_171642.mb57.gz 53.11MB Simrad multibeam processing format
0112_20050630_181642.mb57.gz 10.89MB Simrad multibeam processing format
0114_20050630_191911.mb57.gz 58.33MB Simrad multibeam processing format
0115_20050630_201911.mb57.gz 27.17MB Simrad multibeam processing format
0116_20050630_204315.mb57.gz 3.33MB Simrad multibeam processing format
0117_20050630_204619.mb57.gz 65.72MB Simrad multibeam processing format
0118_20050630_214620.mb57.gz 16.25MB Simrad multibeam processing format
0119_20050630_220025.mb57.gz 67.85MB Simrad multibeam processing format
0120_20050630_230025.mb57.gz 9.52MB Simrad multibeam processing format
0121_20050630_230850.mb57.gz 51.42MB Simrad multibeam processing format
0122_20050701_000600.mb57.gz 32.64MB Simrad multibeam processing format
0123_20050701_011438.mb57.gz 15.61MB Simrad multibeam processing format
0124_20050701_015118.mb57.gz 24.90MB Simrad multibeam processing format
0125_20050701_024336.mb57.gz 27.21MB Simrad multibeam processing format
0126_20050701_040945.mb57.gz 43.44MB Simrad multibeam processing format
0127_20050701_050945.mb57.gz 54.66MB Simrad multibeam processing format
0128_20050701_060945.mb57.gz 64.94MB Simrad multibeam processing format
0129_20050701_070945.mb57.gz 55.82MB Simrad multibeam processing format
0130_20050701_080944.mb57.gz 49.49MB Simrad multibeam processing format
0131_20050701_090944.mb57.gz 25.91MB Simrad multibeam processing format
0132_20050701_094631.mb57.gz 23.8KB Simrad multibeam processing format
0133_20050702_153316.mb57.gz 10.59MB Simrad multibeam processing format
0134_20050702_190922.mb57.gz 6.15MB Simrad multibeam processing format
0135_20050702_193643.mb57.gz 199.8KB Simrad multibeam processing format
0136_20050702_193755.mb57.gz 1.11MB Simrad multibeam processing format
0137_20050702_203900.mb57.gz 11.27MB Simrad multibeam processing format
0138_20050702_213900.mb57.gz 13.46MB Simrad multibeam processing format
0139_20050702_223900.mb57.gz 12.60MB Simrad multibeam processing format
0140_20050702_233900.mb57.gz 5.31MB Simrad multibeam processing format
0141_20050703_001751.mb57.gz 8.72MB Simrad multibeam processing format
0142_20050703_011751.mb57.gz 1.49MB Simrad multibeam processing format
0143_20050703_022303.mb57.gz 10.98MB Simrad multibeam processing format
0144_20050703_032303.mb57.gz 18.61MB Simrad multibeam processing format
0145_20050703_042303.mb57.gz 26.34MB Simrad multibeam processing format
0146_20050703_052303.mb57.gz 20.69MB Simrad multibeam processing format
0147_20050703_062303.mb57.gz 20.94MB Simrad multibeam processing format
0148_20050703_072303.mb57.gz 21.68MB Simrad multibeam processing format
0149_20050703_082304.mb57.gz 12.30MB Simrad multibeam processing format
0150_20050703_092304.mb57.gz 8.74MB Simrad multibeam processing format
0151_20050703_102304.mb57.gz 10.25MB Simrad multibeam processing format
0152_20050703_112304.mb57.gz 16.63MB Simrad multibeam processing format
0153_20050703_122304.mb57.gz 22.66MB Simrad multibeam processing format
0154_20050703_132304.mb57.gz 20.90MB Simrad multibeam processing format
0155_20050703_142304.mb57.gz 7.53MB Simrad multibeam processing format
0156_20050703_145747.mb57.gz 7.11MB Simrad multibeam processing format
0157_20050703_154047.mb57.gz 23.57MB Simrad multibeam processing format
0158_20050703_164048.mb57.gz 13.28MB Simrad multibeam processing format
0159_20050703_172747.mb57.gz 23.53MB Simrad multibeam processing format
0160_20050703_182747.mb57.gz 27.21MB Simrad multibeam processing format
0161_20050703_192747.mb57.gz 25.41MB Simrad multibeam processing format
0162_20050703_202747.mb57.gz 26.21MB Simrad multibeam processing format
0163_20050703_212747.mb57.gz 16.06MB Simrad multibeam processing format
0164_20050703_222747.mb57.gz 12.26MB Simrad multibeam processing format
0165_20050703_232747.mb57.gz 10.76MB Simrad multibeam processing format
0166_20050704_002747.mb57.gz 8.15MB Simrad multibeam processing format
0167_20050704_012748.mb57.gz 9.02MB Simrad multibeam processing format
0168_20050704_022748.mb57.gz 8.45MB Simrad multibeam processing format
0169_20050704_032748.mb57.gz 8.13MB Simrad multibeam processing format
0170_20050704_042748.mb57.gz 8.64MB Simrad multibeam processing format
0171_20050704_052748.mb57.gz 10.12MB Simrad multibeam processing format
0172_20050704_062748.mb57.gz 12.52MB Simrad multibeam processing format
0173_20050704_072748.mb57.gz 15.21MB Simrad multibeam processing format
0174_20050704_082748.mb57.gz 15.12MB Simrad multibeam processing format
0175_20050704_092748.mb57.gz 10.64MB Simrad multibeam processing format
0176_20050704_102748.mb57.gz 3.97MB Simrad multibeam processing format
0177_20050704_133942.mb57.gz 10.17MB Simrad multibeam processing format
0178_20050704_143942.mb57.gz 10.60MB Simrad multibeam processing format
0179_20050704_182735.mb57.gz 12.92MB Simrad multibeam processing format
0180_20050704_192735.mb57.gz 9.01MB Simrad multibeam processing format
0181_20050704_205821.mb57.gz 1.86MB Simrad multibeam processing format
0182_20050704_213730.mb57.gz 12.79MB Simrad multibeam processing format
0183_20050704_223730.mb57.gz 14.46MB Simrad multibeam processing format
0184_20050704_233731.mb57.gz 22.85MB Simrad multibeam processing format
0185_20050705_003731.mb57.gz 22.30MB Simrad multibeam processing format
0186_20050705_021940.mb57.gz 7.12MB Simrad multibeam processing format
0187_20050705_033804.mb57.gz 21.45MB Simrad multibeam processing format
0188_20050705_043804.mb57.gz 19.93MB Simrad multibeam processing format
0189_20050705_053805.mb57.gz 19.35MB Simrad multibeam processing format
0190_20050705_063805.mb57.gz 5.43MB Simrad multibeam processing format
0191_20050705_073641.mb57.gz 21.92MB Simrad multibeam processing format
0192_20050705_083641.mb57.gz 20.10MB Simrad multibeam processing format
0193_20050705_093641.mb57.gz 4.73MB Simrad multibeam processing format
0194_20050705_100908.mb57.gz 20.87MB Simrad multibeam processing format
0195_20050705_110909.mb57.gz 13.14MB Simrad multibeam processing format
0196_20050705_120909.mb57.gz 12.09MB Simrad multibeam processing format
0197_20050705_130909.mb57.gz 13.57MB Simrad multibeam processing format
0198_20050705_140909.mb57.gz 10.14MB Simrad multibeam processing format
0199_20050705_150909.mb57.gz 9.51MB Simrad multibeam processing format
0200_20050705_160909.mb57.gz 9.04MB Simrad multibeam processing format
0201_20050705_170909.mb57.gz 8.67MB Simrad multibeam processing format
0202_20050705_180910.mb57.gz 2.34MB Simrad multibeam processing format
0203_20050705_205330.mb57.gz 14.07MB Simrad multibeam processing format
0204_20050705_215330.mb57.gz 13.48MB Simrad multibeam processing format
0205_20050705_225331.mb57.gz 9.01MB Simrad multibeam processing format
0206_20050705_233708.mb57.gz 2.06MB Simrad multibeam processing format
0207_20050706_012125.mb57.gz 0.53MB Simrad multibeam processing format
0208_20050706_042521.mb57.gz 8.76MB Simrad multibeam processing format
0209_20050706_052522.mb57.gz 12.16MB Simrad multibeam processing format
0210_20050706_062522.mb57.gz 9.91MB Simrad multibeam processing format
0211_20050706_072522.mb57.gz 7.02MB Simrad multibeam processing format
0212_20050706_080633.mb57.gz 11.26MB Simrad multibeam processing format
0213_20050706_090633.mb57.gz 11.42MB Simrad multibeam processing format
0214_20050706_100633.mb57.gz 8.95MB Simrad multibeam processing format
0215_20050706_110633.mb57.gz 5.97MB Simrad multibeam processing format
0216_20050706_151134.mb57.gz 9.93MB Simrad multibeam processing format
0217_20050706_161134.mb57.gz 0.75MB Simrad multibeam processing format
0218_20050706_161611.mb57.gz 10.06MB Simrad multibeam processing format
0219_20050706_171611.mb57.gz 13.85MB Simrad multibeam processing format
0220_20050706_181612.mb57.gz 12.06MB Simrad multibeam processing format
0221_20050706_191612.mb57.gz 15.39MB Simrad multibeam processing format
0222_20050706_201612.mb57.gz 10.92MB Simrad multibeam processing format
0223_20050706_211612.mb57.gz 9.25MB Simrad multibeam processing format
0224_20050706_221612.mb57.gz 11.28MB Simrad multibeam processing format
0225_20050706_231613.mb57.gz 3.68MB Simrad multibeam processing format
0226_20050707_020249.mb57.gz 13.03MB Simrad multibeam processing format
0227_20050707_030249.mb57.gz 8.62MB Simrad multibeam processing format
0228_20050707_040249.mb57.gz 5.82MB Simrad multibeam processing format
0229_20050707_060048.mb57.gz 156.0KB Simrad multibeam processing format
0230_20050707_061909.mb57.gz 10.02MB Simrad multibeam processing format
0231_20050707_071909.mb57.gz 9.26MB Simrad multibeam processing format
0232_20050707_081909.mb57.gz 7.46MB Simrad multibeam processing format
0233_20050707_091909.mb57.gz 0.58MB Simrad multibeam processing format
0234_20050709_112211.mb57.gz 24.62MB Simrad multibeam processing format
0235_20050709_122211.mb57.gz 31.88MB Simrad multibeam processing format
0236_20050709_135354.mb57.gz 30.73MB Simrad multibeam processing format
0237_20050709_145354.mb57.gz 31.15MB Simrad multibeam processing format
0238_20050709_155354.mb57.gz 31.04MB Simrad multibeam processing format
0239_20050709_165354.mb57.gz 48.11MB Simrad multibeam processing format
0240_20050709_175354.mb57.gz 26.84MB Simrad multibeam processing format
0241_20050709_184044.mb57.gz 1.54MB Simrad multibeam processing format
0242_20050709_184331.mb57.gz 34.48MB Simrad multibeam processing format
0243_20050709_194331.mb57.gz 31.18MB Simrad multibeam processing format
0244_20050709_204331.mb57.gz 13.34MB Simrad multibeam processing format
0245_20050709_211631.mb57.gz 20.19MB Simrad multibeam processing format
0246_20050709_230832.mb57.gz 29.16MB Simrad multibeam processing format
0247_20050710_000832.mb57.gz 30.70MB Simrad multibeam processing format
0248_20050710_010832.mb57.gz 19.02MB Simrad multibeam processing format
0249_20050710_030416.mb57.gz 30.36MB Simrad multibeam processing format
0250_20050710_040416.mb57.gz 29.28MB Simrad multibeam processing format
0251_20050710_050416.mb57.gz 25.50MB Simrad multibeam processing format
0252_20050710_060416.mb57.gz 27.41MB Simrad multibeam processing format
0253_20050710_070416.mb57.gz 37.51MB Simrad multibeam processing format
0254_20050710_080416.mb57.gz 33.45MB Simrad multibeam processing format
0255_20050710_090417.mb57.gz 31.60MB Simrad multibeam processing format
0256_20050710_100417.mb57.gz 4.84MB Simrad multibeam processing format
0257_20050710_142239.mb57.gz 46.57MB Simrad multibeam processing format
0258_20050710_152239.mb57.gz 53.05MB Simrad multibeam processing format
0259_20050710_162239.mb57.gz 34.50MB Simrad multibeam processing format
0260_20050710_172239.mb57.gz 34.06MB Simrad multibeam processing format
0261_20050710_182239.mb57.gz 7.21MB Simrad multibeam processing format
0262_20050710_212312.mb57.gz 1.60MB Simrad multibeam processing format
0263_20050710_213449.mb57.gz 36.36MB Simrad multibeam processing format
0264_20050710_223449.mb57.gz 34.54MB Simrad multibeam processing format
0265_20050710_233449.mb57.gz 21.01MB Simrad multibeam processing format
0266_20050711_001429.mb57.gz 30.41MB Simrad multibeam processing format
0267_20050711_011429.mb57.gz 31.77MB Simrad multibeam processing format
0268_20050711_021429.mb57.gz 32.96MB Simrad multibeam processing format
0269_20050711_031430.mb57.gz 27.87MB Simrad multibeam processing format
0270_20050711_041430.mb57.gz 29.04MB Simrad multibeam processing format
0271_20050711_051430.mb57.gz 31.64MB Simrad multibeam processing format
0272_20050711_061430.mb57.gz 36.33MB Simrad multibeam processing format
0273_20050711_071430.mb57.gz 35.09MB Simrad multibeam processing format
0274_20050711_081430.mb57.gz 34.11MB Simrad multibeam processing format
0275_20050711_091430.mb57.gz 13.72MB Simrad multibeam processing format
0276_20050711_112459.mb57.gz 7.41MB Simrad multibeam processing format
0277_20050711_124326.mb57.gz 54.60MB Simrad multibeam processing format
0278_20050711_134326.mb57.gz 8.70MB Simrad multibeam processing format
0279_20050711_135218.mb57.gz 43.33MB Simrad multibeam processing format
0280_20050711_153657.mb57.gz 56.74MB Simrad multibeam processing format
0281_20050711_163657.mb57.gz 13.76MB Simrad multibeam processing format
0282_20050711_200505.mb57.gz 29.91MB Simrad multibeam processing format
0283_20050711_212031.mb57.gz 22.08MB Simrad multibeam processing format
0284_20050711_225853.mb57.gz 27.59MB Simrad multibeam processing format
0285_20050711_235853.mb57.gz 18.18MB Simrad multibeam processing format
0286_20050712_005853.mb57.gz 4.22MB Simrad multibeam processing format
0287_20050712_013309.mb57.gz 25.98MB Simrad multibeam processing format
0288_20050712_023309.mb57.gz 27.66MB Simrad multibeam processing format
0289_20050712_033309.mb57.gz 20.86MB Simrad multibeam processing format
0290_20050712_072032.mb57.gz 25.37MB Simrad multibeam processing format
0291_20050712_082032.mb57.gz 18.25MB Simrad multibeam processing format
0292_20050712_092032.mb57.gz 22.73MB Simrad multibeam processing format
0293_20050712_102032.mb57.gz 33.65MB Simrad multibeam processing format
0294_20050712_112032.mb57.gz 26.13MB Simrad multibeam processing format
0295_20050712_122033.mb57.gz 25.14MB Simrad multibeam processing format
0296_20050712_132033.mb57.gz 32.21MB Simrad multibeam processing format
0297_20050712_142507.mb57.gz 19.12MB Simrad multibeam processing format
0298_20050712_170514.mb57.gz 26.48MB Simrad multibeam processing format
0299_20050712_200411.mb57.gz 6.33MB Simrad multibeam processing format
0300_20050712_203356.mb57.gz 18.79MB Simrad multibeam processing format
0301_20050713_010003.mb57.gz 22.28MB Simrad multibeam processing format
0302_20050713_020003.mb57.gz 31.46MB Simrad multibeam processing format
0303_20050713_030003.mb57.gz 413.2KB Simrad multibeam processing format
0306_20050713_063021.mb57.gz 18.09MB Simrad multibeam processing format
0307_20050713_102827.mb57.gz 11.59MB Simrad multibeam processing format
0308_20050713_123744.mb57.gz 37.82MB Simrad multibeam processing format
0309_20050713_133744.mb57.gz 55.54MB Simrad multibeam processing format
0310_20050713_143744.mb57.gz 39.85MB Simrad multibeam processing format
0311_20050713_153745.mb57.gz 41.27MB Simrad multibeam processing format
0312_20050713_162037.mb57.gz 49.22MB Simrad multibeam processing format
0313_20050713_182104.mb57.gz 61.49MB Simrad multibeam processing format
0314_20050713_192104.mb57.gz 37.30MB Simrad multibeam processing format
0315_20050713_202105.mb57.gz 23.84MB Simrad multibeam processing format
0316_20050713_212105.mb57.gz 3.19MB Simrad multibeam processing format
0317_20050713_215607.mb57.gz 30.30MB Simrad multibeam processing format
0318_20050713_225607.mb57.gz 12.99MB Simrad multibeam processing format
0319_20050714_020244.mb57.gz 26.96MB Simrad multibeam processing format
0320_20050714_030244.mb57.gz 20.47MB Simrad multibeam processing format
0321_20050714_040244.mb57.gz 1.40MB Simrad multibeam processing format
0322_20050714_064445.mb57.gz 25.19MB Simrad multibeam processing format
0323_20050714_074445.mb57.gz 26.23MB Simrad multibeam processing format
0324_20050714_084445.mb57.gz 25.10MB Simrad multibeam processing format
0325_20050714_094445.mb57.gz 23.56MB Simrad multibeam processing format
0326_20050714_104445.mb57.gz 24.90MB Simrad multibeam processing format
0327_20050714_114446.mb57.gz 6.97MB Simrad multibeam processing format
0328_20050714_123243.mb57.gz 10.64MB Simrad multibeam processing format
0329_20050714_125455.mb57.gz 0.81MB Simrad multibeam processing format
0330_20050714_125708.mb57.gz 2.15MB Simrad multibeam processing format
0331_20050714_142940.mb57.gz 8.04MB Simrad multibeam processing format

Metadata Files: 2

Files File Size Description
NBP0505_Multibeam.xml NGDC created ISO metadata
NBP0505.xml 24.7KB XML metadata file